When you browse on this site, cookies collect data to enhance your experience and personalize the content and advertising you see.
Visit our Privacy Policy to learn more. By continuing to use the site, you agree to this use of cookies and data.
  • In Hungary
  • List of Countries
  • For 7 days
  • Water Temperature
  • Satellite Maps
  • Weather Map
  • News
  • Weather Widgets
  • user-avatar
    Login

    Hourly Weather Alborg

    Today, 21 January, Monday

    Time Temperature Precipitation Wind Pressure Humidity
    00:00 -1°C° 0 mm 4 mps 762 mmHg 79%
    01:00 -1°C° 0 mm 4 mps 761 mmHg 78%
    02:00 -1°C° 0.1 mm 5 mps 761 mmHg 77%
    03:00 -1°C° 0.1 mm 5 mps 760 mmHg 76%
    04:00 -1°C° 0.1 mm 5 mps 759 mmHg 76%
    05:00 0°C° 0.4 mm 5 mps 759 mmHg 80%
    06:00 0°C° 0.4 mm 5 mps 759 mmHg 84%
    07:00 +1°C° 0.4 mm 5 mps 758 mmHg 88%
    08:00 +1°C° 0 mm 5 mps 758 mmHg 85%
    09:00 +1°C° 0 mm 5 mps 758 mmHg 82%
    10:00 +1°C° 0 mm 5 mps 758 mmHg 79%
    11:00 +1°C° 0 mm 5 mps 758 mmHg 78%
    12:00 +1°C° 0 mm 4 mps 758 mmHg 77%
    13:00 +3°C° 0 mm 4 mps 757 mmHg 75%
    14:00 +1°C° 0 mm 4 mps 757 mmHg 80%
    15:00 +1°C° 0 mm 4 mps 757 mmHg 84%
    16:00 0°C° 0 mm 4 mps 758 mmHg 89%
    17:00 0°C° 0 mm 4 mps 757 mmHg 90%
    18:00 0°C° 0 mm 3 mps 757 mmHg 92%
    19:00 0°C° 0 mm 3 mps 757 mmHg 93%
    20:00 0°C° 0 mm 3 mps 757 mmHg 93%
    21:00 +1°C° 0 mm 2 mps 757 mmHg 93%
    22:00 +1°C° 0 mm 2 mps 757 mmHg 93%
    23:00 +1°C° 0 mm 2 mps 757 mmHg 93%

    Tomorrow, 22 January, Tuesday

    Time Temperature Precipitation Wind Pressure Humidity
    00:00 +1°C° 0 mm 1 mps 757 mmHg 93%
    01:00 +1°C° 0 mm 1 mps 756 mmHg 92%
    02:00 +1°C° 0 mm 1 mps 756 mmHg 92%
    03:00 +1°C° 0 mm 1 mps 756 mmHg 91%
    04:00 -2°C° 0 mm 2 mps 755 mmHg 91%
    05:00 -2°C° 0 mm 2 mps 755 mmHg 91%
    06:00 -2°C° 0 mm 2 mps 754 mmHg 91%
    07:00 -2°C° 0 mm 2 mps 754 mmHg 91%
    08:00 -1°C° 0 mm 3 mps 754 mmHg 91%
    09:00 -1°C° 0 mm 3 mps 754 mmHg 91%
    10:00 -1°C° 0 mm 3 mps 753 mmHg 92%
    11:00 -1°C° 0 mm 4 mps 753 mmHg 90%
    12:00 -1°C° 0 mm 4 mps 753 mmHg 88%
    13:00 0°C° 0 mm 5 mps 753 mmHg 86%
    14:00 0°C° 0 mm 5 mps 752 mmHg 85%
    15:00 0°C° 0 mm 5 mps 752 mmHg 84%
    16:00 -1°C° 0 mm 5 mps 752 mmHg 84%
    17:00 -1°C° 0 mm 5 mps 752 mmHg 84%
    18:00 -1°C° 0 mm 5 mps 752 mmHg 84%
    19:00 -2°C° 0 mm 6 mps 751 mmHg 84%
    20:00 -2°C° 0 mm 6 mps 751 mmHg 83%
    21:00 -3°C° 0 mm 6 mps 751 mmHg 82%
    22:00 -3°C° 0 mm 6 mps 751 mmHg 81%
    23:00 -2°C° 0 mm 5 mps 751 mmHg 79%

    Day after tomorrow, 23 January, Wednesday

    Time Temperature Precipitation Wind Pressure Humidity
    00:00 -2°C° 0 mm 5 mps 751 mmHg 76%
    01:00 -2°C° 0 mm 5 mps 751 mmHg 73%
    02:00 -2°C° 0 mm 5 mps 751 mmHg 73%
    03:00 -2°C° 0 mm 5 mps 751 mmHg 73%
    04:00 -2°C° 0 mm 5 mps 751 mmHg 74%
    05:00 -2°C° 0 mm 5 mps 752 mmHg 75%
    06:00 -3°C° 0 mm 4 mps 752 mmHg 76%
    07:00 -3°C° 0 mm 4 mps 752 mmHg 77%
    08:00 -3°C° 0 mm 4 mps 752 mmHg 76%
    09:00 -2°C° 0 mm 4 mps 753 mmHg 76%
    10:00 -2°C° 0 mm 4 mps 753 mmHg 76%
    11:00 -2°C° 0 mm 4 mps 754 mmHg 74%
    12:00 -1°C° 0 mm 4 mps 754 mmHg 71%
    13:00 -1°C° 0 mm 4 mps 754 mmHg 69%
    14:00 -1°C° 0 mm 4 mps 755 mmHg 71%
    15:00 -1°C° 0 mm 3 mps 755 mmHg 73%
    16:00 -1°C° 0 mm 2 mps 755 mmHg 75%
    17:00 -1°C° 0 mm 3 mps 755 mmHg 75%
    18:00 -2°C° 0 mm 3 mps 756 mmHg 75%
    19:00 -2°C° 0 mm 3 mps 756 mmHg 75%
    20:00 -2°C° 0 mm 3 mps 757 mmHg 74%
    21:00 -2°C° 0 mm 3 mps 757 mmHg 74%
    22:00 -2°C° 0 mm 3 mps 758 mmHg 74%
    23:00 -2°C° 0 mm 3 mps 758 mmHg 74%

    24 January, Thursday

    Time Temperature Precipitation Wind Pressure Humidity
    00:00 -2°C° 0 mm 2 mps 758 mmHg 74%
    01:00 -2°C° 0 mm 2 mps 759 mmHg 74%
    02:00 -2°C° 0 mm 2 mps 759 mmHg 74%
    03:00 -2°C° 0 mm 2 mps 759 mmHg 75%
    04:00 -2°C° 0 mm 2 mps 759 mmHg 75%
    05:00 -3°C° 0 mm 2 mps 759 mmHg 76%
    06:00 -3°C° 0 mm 2 mps 760 mmHg 76%
    07:00 -3°C° 0 mm 2 mps 760 mmHg 77%
    08:00 -4°C° 0 mm 3 mps 760 mmHg 76%
    09:00 -4°C° 0 mm 3 mps 760 mmHg 76%
    10:00 -2°C° 0 mm 3 mps 761 mmHg 75%
    11:00 -2°C° 0 mm 3 mps 761 mmHg 72%
    12:00 -1°C° 0 mm 3 mps 761 mmHg 68%
    13:00 -1°C° 0 mm 3 mps 761 mmHg 64%
    14:00 -1°C° 0 mm 3 mps 760 mmHg 66%
    15:00 -1°C° 0 mm 3 mps 760 mmHg 67%
    16:00 -2°C° 0 mm 3 mps 760 mmHg 68%
    17:00 -2°C° 0 mm 3 mps 760 mmHg 71%
    18:00 -2°C° 0 mm 3 mps 760 mmHg 73%
    19:00 -2°C° 0 mm 3 mps 761 mmHg 75%
    20:00 -3°C° 0 mm 4 mps 760 mmHg 77%
    21:00 -3°C° 0 mm 4 mps 760 mmHg 79%
    22:00 -3°C° 0 mm 4 mps 760 mmHg 81%
    23:00 -3°C° 0 mm 4 mps 760 mmHg 82%

    25 January, Friday

    Time Temperature Precipitation Wind Pressure Humidity
    00:00 -2°C° 0 mm 4 mps 760 mmHg 83%
    01:00 -2°C° 0 mm 4 mps 759 mmHg 84%
    02:00 -2°C° 0 mm 5 mps 759 mmHg 85%
    03:00 -2°C° 0 mm 5 mps 758 mmHg 86%
    04:00 -2°C° 0 mm 5 mps 758 mmHg 87%
    05:00 -3°C° 0.3 mm 6 mps 757 mmHg 87%
    06:00 -2°C° 0.3 mm 7 mps 756 mmHg 87%
    07:00 -2°C° 0.3 mm 8 mps 755 mmHg 87%
    08:00 -2°C° 1.1 mm 8 mps 754 mmHg 87%
    09:00 -1°C° 1.1 mm 9 mps 753 mmHg 88%
    10:00 -1°C° 1.1 mm 9 mps 752 mmHg 88%
    11:00 -2°C° 0.5 mm 10 mps 751 mmHg 89%
    12:00 0°C° 0.5 mm 10 mps 750 mmHg 91%
    13:00 0°C° 0.5 mm 10 mps 749 mmHg 93%
    14:00 +1°C° 1.9 mm 9 mps 748 mmHg 94%
    15:00 +2°C° 1.9 mm 8 mps 747 mmHg 95%
    16:00 +2°C° 1.9 mm 8 mps 747 mmHg 96%
    17:00 +3°C° 0.6 mm 7 mps 747 mmHg 93%
    18:00 +2°C° 0.6 mm 6 mps 747 mmHg 90%
    19:00 +2°C° 0.6 mm 6 mps 747 mmHg 87%
    20:00 +1°C° 0 mm 6 mps 747 mmHg 85%
    21:00 +1°C° 0 mm 6 mps 746 mmHg 83%
    22:00 +1°C° 0 mm 6 mps 746 mmHg 81%
    23:00 0°C° 0 mm 7 mps 746 mmHg 81%

    26 January, Saturday

    Time Temperature Precipitation Wind Pressure Humidity
    00:00 +1°C° 0 mm 8 mps 745 mmHg 80%
    01:00 +1°C° 0 mm 9 mps 745 mmHg 79%
    02:00 +1°C° 0 mm 9 mps 744 mmHg 79%
    03:00 +1°C° 0 mm 9 mps 744 mmHg 79%
    04:00 +1°C° 0 mm 10 mps 743 mmHg 79%
    05:00 +1°C° 0 mm 9 mps 743 mmHg 78%
    06:00 +1°C° 0 mm 9 mps 743 mmHg 76%
    07:00 +1°C° 0 mm 9 mps 743 mmHg 75%
    08:00 +1°C° 0 mm 9 mps 743 mmHg 76%
    09:00 +1°C° 0 mm 8 mps 743 mmHg 77%
    10:00 +1°C° 0 mm 8 mps 743 mmHg 78%
    11:00 +1°C° 0 mm 8 mps 743 mmHg 78%
    12:00 +2°C° 0 mm 7 mps 743 mmHg 77%
    13:00 +3°C° 0 mm 7 mps 743 mmHg 77%
    14:00 +2°C° 0 mm 6 mps 743 mmHg 79%
    15:00 +2°C° 0 mm 6 mps 743 mmHg 81%
    16:00 +1°C° 0 mm 5 mps 743 mmHg 83%
    17:00 +1°C° 0 mm 5 mps 743 mmHg 84%
    18:00 0°C° 0 mm 4 mps 742 mmHg 86%
    19:00 0°C° 0 mm 4 mps 742 mmHg 87%
    20:00 0°C° 0 mm 4 mps 742 mmHg 87%
    21:00 0°C° 0 mm 4 mps 742 mmHg 86%
    22:00 0°C° 0 mm 4 mps 741 mmHg 86%
    23:00 0°C° 0 mm 4 mps 741 mmHg 85%
    Show more